Location: ??????
(55.7346°N, 38.6448°E)
Time: 14:53:21
(UTC+00:00)

Daily predictions for brighter satellites

Satellite Brightness Start Highest point End
(mag) Time Altitude Azimuth Time Altitude Azimuth Time Altitude Azimuth
H-2A R/B 3.8 14:26:13 10° S 14:29:49 50° W 14:33:28 10° NNW
Cosmos 2098 Rocket 4.3 14:27:35 10° NNW 14:30:24 31° W 14:33:00 10° SSW
Cosmos 371 Rocket 4.4 14:26:06 10° SW 14:30:44 43° NW 14:35:24 10° NNE
Cosmos 1953 2.8 14:26:50 10° SSW 14:30:46 64° WNW 14:34:45 10° N
NOSS 2-1 (C) 3.5 14:29:27 10° WSW 14:32:49 57° NNW 14:36:46 10° NE
Meteor 2-16 Rocket 4.5 14:27:24 10° N 14:33:28 63° ENE 14:39:30 10° SSE
Cosmos 1606 Rocket 3.9 14:29:43 10° SSE 14:33:52 43° E 14:38:05 10° NNE
FengYun 1-2 T 4.3 14:30:59 10° SSE 14:36:35 67° ENE 14:42:11 10° NNW
NOSS 2-1 (D) 3.6 14:34:45 10° WSW 14:38:06 53° NNW 14:42:04 10° NE
Cosmos 1943 Rocket 3.5 14:34:18 10° WSW 14:39:20 34° NW 14:44:23 10° NNE
USA 305 3.6 14:36:01 10° W 14:40:14 54° SSW 14:44:26 10° ESE
Aureole 3 Rocket 4.3 14:36:14 10° SE 14:40:21 33° E 14:45:51 10° NNE
USA 215 3.3 14:36:00 10° E 14:42:34 82° N 14:49:08 10° W
Cosmos 292 Rocket 4.2 14:38:15 10° S 14:42:46 42° ESE 14:47:20 10° NE
Cosmos 1745 Rocket 4.5 14:37:16 10° N 14:43:06 38° ENE 14:48:58 10° SE
YAOGAN 6 3.2 14:39:29 10° S 14:43:08 63° WSW 14:46:50 10° NNW
Cosmos 1726 4.0 14:40:16 10° SW 14:43:40 33° WNW 14:47:05 10° N
ATLAS 2AS CENTAUR R/B 3.2 14:36:19 10° WNW 14:43:58 54° NNE 14:51:07 10° E
Cosmos 2219 3.3 14:38:38 10° NW 14:44:26 87° WSW 14:50:13 10° SSE
SeaSat 1 3.5 14:41:36 10° E 14:45:45 28° NE 14:49:54 10° NNW
H-2A R/B 3.1 14:41:46 10° ESE 14:46:15 27° NE 14:50:46 10° N
USA 306 3.6 14:42:31 10° W 14:46:43 52° SSW 14:50:52 10° ESE
COSMOS 2455 4.2 14:42:48 10° WNW 14:47:58 28° N 14:53:08 10° NE
CZ-4C R/B 3.3 14:45:48 10° N 14:49:03 66° WNW 14:52:22 10° SSW
ATLAS 5 CENTAUR R/B 2.5 14:45:02 10° W 14:49:17 44° NNW 14:54:17 10° NE
Cosmos 1455 3.9 14:48:25 10° ESE 14:50:19 13° E 14:52:14 10° NE
Cosmos 2082 3.8 14:46:02 10° NNW 14:51:44 60° NE 14:57:24 10° SE
Cosmos 1331 Rocket 4.0 14:47:24 10° S 14:52:29 62° ESE 14:57:35 10° NNE
SMAP 3.5 14:48:33 10° S 14:53:10 67° WSW 14:57:51 10° NNW
Okean-O 3.2 14:49:13 10° SE 14:53:18 37° ENE 14:57:23 10° N
H-2A R/B 4.4 14:49:49 10° SSW 14:54:01 38° W 14:58:15 10° NNW
Cosmos 1244 Rocket 4.5 14:49:50 10° N 14:56:03 73° ENE 15:02:18 10° SSE
Cosmos 2278 Rocket 4.1 14:52:21 10° NW 14:56:10 18° N 14:59:59 10° NE
CSL-04 DEB 4.3 14:52:44 10° NNE 14:56:43 81° ESE 15:00:38 10° SSW
Lacrosse 5 1.9 14:52:16 10° W 14:57:21 77° N 15:01:48 14° E
Cosmos 1953 Rocket 3.7 14:55:24 10° NNW 14:59:50 81° W 15:04:17 10° S
ARGOS 4.1 14:55:54 10° ESE 15:00:22 27° NE 15:04:52 10° N
GEOS 3 Rocket 3.9 14:55:34 10° ESE 15:00:50 58° NNE 15:06:09 10° NW
Cosmos 968 Rocket 3.4 14:55:51 10° NNW 15:01:08 78° ENE 15:06:19 10° SSE
Cosmos 1656 4.4 14:56:53 10° S 15:01:50 33° ESE 15:06:51 10° NE
ADEOS Rocket 3.3 14:55:31 10° NNE 15:01:51 84° WNW 15:08:54 10° SSW
FALCON 9 DEB 4.4 15:00:36 10° SSW 15:03:16 24° SSE 15:05:08 15° ESE
Cosmos 1844 Rocket 4.3 15:00:44 10° NNW 15:04:50 20° NNE 15:08:21 12° ENE
Feng Yun 1-1 Rocket 4.4 15:01:19 10° SSE 15:07:15 86° ENE 15:13:13 10° NNW
Cosmos 1408 3.1 15:04:11 10° N 15:07:38 37° ENE 15:11:04 10° SE
USA 281 4.1 15:02:02 10° S 15:08:28 55° WSW 15:14:56 10° NW
CZ-4B R/B 4.3 15:04:11 10° S 15:09:35 50° W 15:14:56 10° NNW
GENESIS II 4.3 15:06:06 10° SW 15:10:08 71° SE 15:13:31 14° NE
Cosmos 2058 Rocket 3.3 15:07:10 10° S 15:11:32 52° E 15:15:56 10° NNE
CZ-4C R/B 3.1 15:07:20 10° WNW 15:13:27 49° NNE 15:19:15 16° E
SL-08 ROCKET BODY 4.4 15:07:41 10° N 15:13:46 62° ENE 15:19:53 10° SSE
Cosmos 2227 Rocket 2.5 15:09:57 10° NW 15:15:36 70° WSW 15:21:13 10° SSE
ERBS 2.3 15:12:36 10° W 15:15:57 69° N 15:17:55 23° E
Cosmos 1076 Rocket 3.9 15:12:56 10° N 15:16:58 40° ENE 15:20:59 10° SE
IRS-1C Rocket 4.1 15:12:01 10° SSE 15:17:18 84° ENE 15:22:38 10° NNW
FALCON 9 DEB 4.3 15:14:58 10° SW 15:17:47 28° SSE 15:19:11 20° ESE
Cosmos 2263 Rocket 2.8 15:12:30 10° NNW 15:17:49 38° NE 15:21:42 17° E
SJ 16-02 3.2 15:16:16 10° N 15:18:50 15° NE 15:19:44 14° NE
Cosmos 1689 Rocket 2.8 15:17:46 19° NE 15:19:12 30° E 15:21:49 10° SSE
Cosmos 1818 4.3 15:14:46 10° WSW 15:20:04 50° NNW 15:25:06 11° NE
CSL-04 Rocket 4.0 15:16:06 10° SE 15:21:19 44° ENE 15:26:31 10° N
Cosmos 1892 2.6 15:19:07 10° N 15:23:02 77° ENE 15:26:55 10° SSE
Cosmos 1110 Rocket 4.1 15:17:48 10° SSW 15:23:03 78° WNW 15:28:17 10° NNE
FALCON 9 DEB 4.0 15:20:58 10° W 15:24:16 44° SSW 15:26:28 18° SE
Cosmos 1302 Rocket 4.0 15:19:51 10° S 15:25:02 62° ESE 15:30:18 10° NNE
H-2A R/B 3.1 15:22:25 10° N 15:26:27 46° WNW 15:30:23 10° SW
FALCON 9 DEB 4.1 15:24:29 10° SW 15:27:22 31° SSE 15:28:26 24° ESE
Cosmos 1939 Rocket 2.8 15:23:32 10° SSE 15:27:29 82° WSW 15:31:24 10° NNW
COSMO-SKYMED 1 2.7 15:23:55 10° NNE 15:28:11 51° E 15:32:25 10° S
USA 307 4.2 15:26:16 10° W 15:30:14 37° SSW 15:34:05 11° SE
Cosmos 1486 Rocket 4.4 15:25:04 10° NNW 15:30:24 67° WSW 15:35:40 10° SSE
NOSS 2-1 (E) 4.4 15:28:19 10° W 15:31:39 36° NNW 15:34:33 16° NE
SAR-Lupe-4 3.5 15:29:15 10° NNE 15:32:50 66° ESE 15:36:24 10° S
Cosmos 1697 Rocket 3.3 15:29:42 10° S 15:34:39 33° ESE 15:37:53 19° ENE
USA 308 4.2 15:31:15 10° W 15:35:11 35° SSW 15:38:52 11° SE
BREEZE-M R/B 4.3 15:33:53 10° WSW 15:37:28 41° S 15:42:10 17° ESE
CZ-4B R/B 1.7 15:34:48 10° N 15:38:02 65° WNW 15:41:09 10° SSW
Cosmos 1300 3.3 15:34:18 10° SSW 15:38:04 59° WNW 15:41:52 10° N
Cosmos 1825 2.2 15:35:09 10° N 15:38:53 53° ENE 15:42:35 10° SSE
Meteor 2-8 Rocket 4.4 15:32:49 10° S 15:38:56 78° E 15:45:08 10° NNE
Cosmos 1400 Rocket 2.8 15:34:58 10° SSW 15:39:03 87° ESE 15:43:09 10° NNE
S3M 4.1 15:33:37 10° SSE 15:39:32 52° E 15:45:32 10° NNE
ERS-2 2.5 15:36:44 10° NNE 15:40:22 63° WNW 15:43:58 10° SSW
Cosmos 1503 Rocket 4.0 15:35:24 10° NNW 15:40:39 86° WSW 15:45:56 10° SSE
Helios 1A Rocket 3.0 15:40:20 10° SSE 15:44:27 78° WSW 15:48:34 10° NNW
YAOGAN 1 2.4 15:41:33 10° SSE 15:45:53 79° ENE 15:50:14 10° NNW
Meteor 2-1 Rocket 4.3 15:42:26 10° S 15:47:45 51° E 15:53:07 10° NNE
Cosmos 1417 Rocket 4.4 15:43:32 10° S 15:49:47 72° E 15:56:08 10° NNE
Cosmos 1340 4.3 15:46:31 10° NNW 15:50:00 37° W 15:53:30 10° SSW
SAR-Lupe-1 4.0 15:47:05 10° NNE 15:50:41 87° WNW 15:54:15 10° SSW
Cosmos 44 3.2 15:47:13 10° SW 15:51:51 84° NW 15:55:00 22° NE
Okean 3 Rocket 4.3 15:48:16 10° N 15:52:03 31° ENE 15:52:03 31° ENE
SKYMED 3 4.5 15:47:55 10° NNE 15:52:18 82° ESE 15:56:39 10° SSW
Cosmos 1812 Rocket 3.9 15:48:18 10° SSE 15:52:26 41° E 15:56:34 10° NNE
Okean O Rocket 4.3 15:49:37 10° SW 15:52:59 22° W 15:56:23 10° NW
Cosmos 1354 Rocket 4.1 15:48:08 10° NNW 15:53:25 80° WSW 15:58:41 10° SSE
CZ-2D R/B 3.8 15:49:41 10° S 15:53:28 60° W 15:57:14 10° NNW
Cosmos 2297 Rocket 3.9 15:49:45 10° NW 15:54:50 35° WSW 15:59:53 10° S
Resurs 01 Rocket 3.7 15:56:30 13° NNE 15:56:30 13° NNE 15:57:31 10° NNE
CZ-4 R/B 1.4 15:51:38 10° S 15:55:30 74° WSW 15:59:21 10° NNW
Aureole 3 3.3 15:53:43 10° SSW 15:56:39 53° WNW 15:59:40 10° N
Timation 1 Rocket 4.4 15:50:57 10° NW 15:57:01 81° WSW 16:03:02 10° SSE
Cosmos 1346 Rocket 3.3 15:53:12 10° NNW 15:57:10 61° W 16:01:06 10° S
Cosmos 2058 3.2 15:53:07 10° NNW 15:57:12 69° W 16:01:17 10° S
Cosmos 2369 Rocket 4.1 15:53:23 10° WNW 15:57:57 24° NNW 16:02:33 10° NNE
Cosmos 1980 Rocket 3.1 15:53:35 10° SSE 15:57:31 27° ESE 15:57:31 27° ESE
SL-4 R/B 3.0 15:56:29 10° W 15:59:43 32° SSW 16:00:58 25° SSE
Cosmos 2151 3.0 15:55:43 10° N 15:59:51 51° ENE 16:00:54 40° ESE
Meteor 2-15 Rocket 4.4 15:54:38 10° S 16:00:41 64° E 16:06:46 10° NNE
PSLV R/B 3.8 15:56:55 10° NNE 16:01:09 81° ESE 16:05:18 10° SSW
Cosmos 1992 Rocket 4.0 15:56:36 10° S 16:01:40 54° ESE 16:05:12 20° NE
SJ-11-01 4.1 15:58:07 10° SSE 16:02:47 78° ENE 16:07:30 10° NNW
CSL-04 Debris 4.1 15:58:41 10° SSE 16:04:09 85° ENE 16:09:41 10° NNW
CZ-2C R/B 3.3 15:58:36 10° SSE 16:04:22 81° WSW 16:09:56 10° NNW
Cosmos 1553 Rocket 4.1 16:01:37 10° SSW 16:07:58 83° WNW 16:14:15 10° N
CRYOSAT 2 4.2 16:03:43 10° N 16:08:36 69° E 16:13:26 10° S
Meteor 2-15 4.4 16:06:01 10° S 16:12:11 88° E 16:18:22 10° NNE
Cosmos 2227 4.1 16:06:41 10° NNW 16:12:20 70° NE 16:14:40 36° SE
Cosmos 1315 Rocket 2.6 16:08:45 10° S 16:12:43 74° ESE 16:15:47 17° NNE
NOSS 3-4 (A) 3.8 16:06:39 10° NW 16:13:25 83° SW 16:18:11 25° SE
NOSS 3-4 (C) 3.8 16:06:45 10° NW 16:13:31 83° SW 16:18:15 25° SE
Ariane Rocket 3.3 16:13:29 42° E 16:14:10 45° ENE 16:19:00 10° N
SKYMED 2 4.0 16:12:01 10° N 16:16:21 64° WNW 16:20:39 10° SSW
Meteor 2-10 Rocket 3.4 16:11:59 10° SSW 16:17:14 90° ENE 16:22:20 10° NNE
Cosmos 220 Rocket 3.9 16:13:19 10° SSW 16:17:42 75° ESE 16:19:08 42° NE
Cosmos 2360 4.3 16:15:34 10° S 16:21:05 52° ESE 16:22:32 42° ENE
SeaSat 1 2.3 16:20:51 38° SE 16:22:49 88° NE 16:27:48 10° NNW
Cosmos 1943 Rocket 4.3 16:21:04 10° NW 16:24:46 18° NNW 16:28:10 11° NNE
H-2A R/B 2.3 16:19:48 10° S 16:25:14 76° WSW 16:30:44 10° NNW
Cosmos 1455 2.2 16:21:34 10° SSW 16:25:21 79° WNW 16:28:39 14° N
USA 215 3.2 16:22:49 38° ESE 16:25:37 89° SSW 16:32:13 10° WNW
Cosmos 1441 Rocket 4.2 16:22:13 10° N 16:24:38 34° N 16:24:38 34° N
NOSS 3-3 (A) 4.0 16:20:51 10° SSW 16:26:41 57° SE 16:28:42 41° ENE
MOS 1 Rocket 3.2 16:22:07 10° NNE 16:26:46 68° ESE 16:31:42 10° S
NOSS 3-3 (C) 4.0 16:20:58 10° SSW 16:26:48 57° SE 16:28:46 41° ENE
IRS-1A Rocket 4.2 16:27:59 48° ESE 16:29:12 59° ENE 16:34:38 10° NNW
Okean-O 4.1 16:25:40 10° SSW 16:29:47 37° W 16:33:57 10° NNW
Cosmos 2278 4.0 16:26:03 10° S 16:30:46 45° SE 16:30:46 45° SE
MOS 1 4.3 16:31:54 51° ESE 16:32:55 58° ENE 16:38:28 10° NNW
ATLAS 5 CENTAUR R/B 2.9 16:30:29 10° WNW 16:34:55 36° N 16:36:03 32° NNE
Meteor 2-3 Rocket 3.6 16:29:44 10° NNW 16:35:30 73° ENE 16:37:17 45° SE
COSMOS 2455 3.7 16:29:56 10° NW 16:35:30 36° NNE 16:36:35 33° NE
ATLAS 2AS CENTAUR R/B 2.9 16:27:50 10° NW 16:35:31 80° SW 16:38:50 36° SE
GEOS 3 Rocket 4.3 16:36:12 27° SSE 16:38:56 53° SW 16:44:15 10° NW
ARGOS 3.3 16:35:50 16° S 16:40:13 75° WSW 16:45:41 10° NNW
Lacrosse 5 1.7 16:35:24 10° WNW 16:40:30 84° SSW 16:41:00 73° SE
Cosmos 2278 Rocket 3.8 16:38:13 10° NNW 16:42:26 21° NNE 16:43:08 20° NNE
Cosmos 44 Rocket 4.3 16:38:26 10° SSW 16:41:12 32° S 16:41:12 32° S
Cosmos 1656 4.1 16:39:39 10° SW 16:45:13 62° NW 16:49:12 20° NNE
SL-08 RB Rocket 3.6 16:48:05 79° SW 16:48:15 81° WSW 16:52:48 10° NNW
Cosmos 1844 Rocket 3.3 16:44:53 10° NNW 16:50:00 41° NE 16:50:00 41° NE
ERBS 4.1 16:48:54 10° WNW 16:50:49 31° W 16:50:49 31° W
Cosmos 2184 Rocket 3.9 16:48:38 10° N 16:54:58 68° ENE 16:55:37 64° ESE
Cosmos 2369 3.6 16:50:08 10° SSW 16:55:52 89° ESE 16:57:13 55° NE
Cosmos 1777 Rocket 4.4 16:51:42 10° NNW 16:56:50 59° WSW 16:58:18 43° SSW
SJ 16-02 2.5 16:54:02 10° NNW 16:56:44 34° N 16:56:44 34° N
Meteor 2-17 Rocket 4.3 16:52:43 10° NNW 16:58:49 89° W 17:00:30 51° S
Cosmos 2263 Rocket 2.5 16:56:29 10° NW 17:02:09 65° WSW 17:03:25 51° S
CZ-4C R/B 2.7 16:55:56 10° NW 17:02:43 89° NE 17:04:27 58° SE
RESURS DK-1 4.4 16:59:52 10° NNW 17:01:39 20° N 17:01:39 20° N
SJ-6B 4.5 17:09:34 31° NNW 17:09:34 31° NNW 17:11:48 10° NNW
Cosmos 1844 4.4 17:02:50 10° NNW 17:07:17 41° NNE 17:07:17 41° NNE
Cosmos 2074 Rocket 3.8 17:06:41 10° NNW 17:12:57 88° E 17:13:23 79° SSE
Cosmos 1697 Rocket 3.0 17:12:45 10° SW 17:18:20 63° NW 17:19:40 49° N
Cosmos 1898 Rocket 4.3 17:15:23 10° NNW 17:19:10 43° N 17:19:10 43° N
Cosmos 2315 Rocket 4.4 17:22:27 10° SSW 17:28:36 61° WNW 17:34:46 10° N
SPOT 3 Rocket 4.5 17:32:20 42° NNW 17:32:20 42° NNW 17:35:45 10° NNW
Resurs 01 Rocket 3.9 17:34:04 19° N 17:34:04 19° N 17:35:18 10° NNW
Cosmos 1980 Rocket 3.4 17:36:15 10° SW 17:39:22 34° SW 17:39:22 34° SW
Cosmos 2369 Rocket 4.3 17:40:18 10° NW 17:44:05 18° N 17:44:55 17° NNE
Ariane Rocket 4.3 17:53:41 37° W 17:53:41 37° W 17:58:00 10° NNW
Cosmos 2154 Rocket 4.4 17:50:12 10° NNW 17:55:11 57° NW 17:55:11 57° NW
USA 215 3.9 18:10:10 46° WSW 18:10:10 46° WSW 18:15:25 10° WNW
Cosmos 1943 Rocket 4.3 18:06:50 10° NNW 18:09:41 18° N 18:09:41 18° N
ATLAS 5 CENTAUR R/B 3.9 18:15:18 10° NW 18:17:34 27° NW 18:17:34 27° NW
COSMOS 2455 4.1 18:16:07 10° NW 18:19:43 38° NW 18:19:43 38° NW
Lacrosse 5 4.2 18:18:32 10° WNW 18:20:11 19° W 18:20:11 19° W
ATLAS 2AS CENTAUR R/B 4.2 18:19:32 10° WNW 18:25:31 27° WSW 18:26:17 26° WSW
Cosmos 2278 Rocket 4.0 18:22:29 10° NNW 18:24:58 25° NNW 18:24:58 25° NNW
Cosmos 1844 Rocket 4.4 18:28:51 10° NW 18:31:40 29° NW 18:31:40 29° NW
SJ 16-02 4.4 18:33:06 10° NW 18:33:44 13° NW 18:33:44 13° NW
CZ-4C R/B 4.1 18:44:38 10° WNW 18:49:38 33° W 18:49:38 33° W
ATLAS CENTAUR R/B 4.5 18:52:45 10° WNW 19:13:45 80° W 19:13:45 80° W
Cosmos 2322 Rocket 4.4 23:31:09 19° N 23:31:19 19° NNE 23:35:20 10° ENE
USA 234 4.4 23:38:38 10° ENE 23:42:51 34° ESE 23:42:51 34° ESE
